Drummond Island, MI

6:47 AM EDT on May 28, 2018 (GMT -0400)
Drummond Island

Weather History for KDRM - April, 2013

Change the Weather History Date:

Sunday, April 28, 2013

  Actual Average (KCIU) Record (KCIU)
Temperature  
Mean Temperature 46 °F -  
Max Temperature 61 °F 58 °F 78 °F (1990)
Min Temperature 32 °F 32 °F 22 °F (1982)
Degree Days  
Heating Degree Days 18    
Moisture  
Dew Point 39 °F    
Average Humidity 72    
Maximum Humidity 100    
Minimum Humidity 40    
Precipitation  
Precipitation 0.00 in - - ()
Sea Level Pressure  
Sea Level Pressure 29.98 in    
Wind  
Wind Speed 4 mph (SE)    
Max Wind Speed 15 mph    
Max Gust Speed 23 mph    
Visibility 9 miles    
Events      
Averages and records for this station are not official NWS values.
T = Trace of Precipitation, MM = Missing Value Source: NWS Daily Summary

Daily Weather History Graph

Daily Weather History Graph

Search for Another Location

Airport or City:

Astronomy

Apr. 28, 2013 Rise Set
Actual Time 6:26 AM EDT 8:39 PM EDT
Civil Twilight 5:53 AM EDT 9:12 PM EDT
Nautical Twilight 5:12 AM EDT 9:53 PM EDT
Astronomical Twilight 4:27 AM EDT 10:38 PM EDT
Moon No Moon Rise 8:35 AM EDT
Length of Visible Light 15h 18m
Length of Day
14h 13m
Waning Gibbous, 89% of the Moon is Illuminated
Apr 28
Waning Gibbous
May 2
Last Quarter
May 9
New
May 18
First Quarter
May 25
Full

Hourly Weather History & Observations

Time (EDT) Temp. Windchill Dew Point Humidity Pressure Visibility Wind Dir Wind Speed Gust Speed Precip Events Conditions
12:15 AM 38.5 °F - 37.4 °F 96% 30.09 in 10.0 mi Calm Calm - N/A   Clear
12:35 AM 37.9 °F - 37.0 °F 97% 30.09 in 10.0 mi Calm Calm - N/A   Clear
12:56 AM 38.7 °F - 37.8 °F 97% 30.09 in 10.0 mi Calm Calm - N/A   Clear
1:15 AM 36.9 °F - 36.3 °F 98% 30.08 in 10.0 mi Calm Calm - N/A   Clear
1:35 AM 37.2 °F 34.7 °F 36.9 °F 99% 30.07 in 10.0 mi North 3.5 mph - N/A   Clear
1:56 AM 37.2 °F - 37.0 °F 99% 30.07 in 7.0 mi Calm Calm - N/A   Clear
2:15 AM 36.0 °F - 35.8 °F 99% 30.07 in 7.0 mi Calm Calm - N/A   Clear
2:35 AM 36.5 °F - 36.1 °F 99% 30.07 in 7.0 mi Calm Calm - N/A   Clear
2:55 AM 36.0 °F - 35.8 °F 99% 30.05 in 7.0 mi Calm Calm - N/A   Clear
3:15 AM 35.2 °F - 35.1 °F 99% 30.05 in 7.0 mi Calm Calm - N/A   Clear
3:36 AM 34.7 °F - 34.7 °F 100% 30.04 in 5.0 mi Calm Calm - N/A   Clear
3:55 AM 35.1 °F - 35.1 °F 100% 30.04 in 5.0 mi Calm Calm - N/A   Clear
4:15 AM 34.9 °F - 34.9 °F 100% 30.04 in 4.0 mi Calm Calm - N/A   Clear
4:35 AM 33.8 °F - 33.8 °F 100% 30.03 in 7.0 mi Calm Calm - N/A   Clear
4:55 AM 33.8 °F - 33.8 °F 100% 30.03 in 7.0 mi Calm Calm - N/A   Clear
5:16 AM 34.0 °F - 34.0 °F 100% 30.03 in 7.0 mi Calm Calm - N/A   Clear
5:35 AM 32.9 °F 29.8 °F 32.9 °F 100% 30.03 in 7.0 mi SE 3.5 mph - N/A   Clear
5:55 AM 36.7 °F 34.1 °F 36.5 °F 99% 30.02 in 10.0 mi SE 3.5 mph - N/A   Clear
6:15 AM 38.7 °F - 36.9 °F 93% 30.02 in 10.0 mi Calm Calm - N/A   Clear
6:35 AM 38.8 °F - 36.3 °F 91% 30.02 in 10.0 mi Calm Calm - N/A   Clear
7:15 AM 40.6 °F 36.0 °F 38.1 °F 91% 30.03 in 10.0 mi SE 6.9 mph - N/A   Clear
7:35 AM 43.5 °F 38.9 °F 38.8 °F 84% 30.03 in 10.0 mi SE 8.1 mph - N/A   Clear
7:56 AM 45.0 °F 41.8 °F 38.7 °F 79% 30.04 in 10.0 mi SE 5.8 mph - N/A   Clear
8:15 AM 47.3 °F - 39.2 °F 73% 30.04 in 10.0 mi SE 3.5 mph - N/A   Clear
8:35 AM 50.0 °F - 39.4 °F 67% 30.04 in 10.0 mi Calm Calm - N/A   Clear
9:15 AM 50.7 °F - 40.3 °F 67% 30.03 in 10.0 mi Calm Calm - N/A   Clear
9:35 AM 54.7 °F - 38.5 °F 54% 30.03 in 10.0 mi SSE 4.6 mph - N/A   Clear
9:56 AM 55.8 °F - 38.3 °F 52% 30.03 in 10.0 mi SE 4.6 mph - N/A   Clear
10:15 AM 56.8 °F - 38.1 °F 50% 30.02 in 10.0 mi Calm Calm - N/A   Clear
10:35 AM 57.7 °F - 38.1 °F 48% 30.01 in 10.0 mi Calm Calm - N/A   Clear
10:55 AM 60.1 °F - 37.0 °F 42% 30.01 in 10.0 mi SSE 4.6 mph - N/A   Scattered Clouds
11:15 AM 59.5 °F - 37.9 °F 45% 30.01 in 7.0 mi South 5.8 mph - N/A   Mostly Cloudy
11:35 AM 58.3 °F - 36.9 °F 45% 30.00 in 10.0 mi South 3.5 mph - N/A   Overcast
11:55 AM 61.2 °F - 36.7 °F 40% 30.00 in 10.0 mi SSE 4.6 mph - N/A   Overcast
12:16 PM 60.8 °F - 36.1 °F 40% 29.99 in 10.0 mi SSE 8.1 mph - N/A   Overcast
12:35 PM 57.4 °F - 36.9 °F 46% 29.99 in 10.0 mi SE 5.8 mph - N/A   Overcast
12:55 PM 56.7 °F - 37.0 °F 48% 29.99 in 10.0 mi South 6.9 mph - N/A   Overcast
1:16 PM 56.7 °F - 37.9 °F 50% 29.98 in 10.0 mi ESE 5.8 mph - N/A   Overcast
1:35 PM 56.7 °F - 38.7 °F 51% 29.97 in 10.0 mi ESE 4.6 mph - N/A   Overcast
1:55 PM 56.5 °F - 37.9 °F 50% 29.97 in 10.0 mi SE 6.9 mph - N/A   Overcast
2:16 PM 57.7 °F - 38.5 °F 49% 29.96 in 10.0 mi SE 6.9 mph - N/A   Overcast
2:35 PM 57.2 °F - 38.5 °F 50% 29.96 in 10.0 mi ESE 6.9 mph - N/A   Overcast
2:55 PM 57.0 °F - 38.7 °F 50% 29.95 in 10.0 mi SE 9.2 mph - N/A   Overcast
3:16 PM 57.7 °F - 39.0 °F 50% 29.94 in 10.0 mi SE 8.1 mph - N/A   Overcast
3:35 PM 59.0 °F - 39.6 °F 49% 29.93 in 10.0 mi SE 9.2 mph - N/A   Overcast
3:55 PM 59.4 °F - 39.9 °F 49% 29.93 in 10.0 mi SE 9.2 mph - N/A   Mostly Cloudy
4:15 PM 59.5 °F - 40.1 °F 49% 29.92 in 10.0 mi SE 12.7 mph 18.4 mph N/A   Mostly Cloudy
4:35 PM 59.9 °F - 39.4 °F 47% 29.91 in 10.0 mi ESE 11.5 mph 18.4 mph N/A   Mostly Cloudy
4:55 PM 59.9 °F - 39.9 °F 48% 29.91 in 10.0 mi SE 12.7 mph 17.3 mph N/A   Mostly Cloudy
5:15 PM 58.8 °F - 40.3 °F 50% 29.91 in 10.0 mi SE 15.0 mph 23.0 mph N/A   Scattered Clouds
5:36 PM 59.0 °F - 41.5 °F 52% 29.90 in 10.0 mi SE 11.5 mph 18.4 mph N/A   Clear
5:55 PM 58.5 °F - 41.9 °F 54% 29.90 in 10.0 mi SE 12.7 mph 23.0 mph N/A   Clear
6:15 PM 59.4 °F - 42.1 °F 53% 29.90 in 10.0 mi SE 15.0 mph 23.0 mph N/A   Clear
6:36 PM 59.0 °F - 42.4 °F 54% 29.89 in 10.0 mi SE 12.7 mph 21.9 mph N/A   Clear
6:55 PM 58.1 °F - 42.8 °F 57% 29.89 in 10.0 mi SE 12.7 mph 20.7 mph N/A   Clear
7:15 PM 57.4 °F - 42.8 °F 58% 29.88 in 10.0 mi SE 12.7 mph 19.6 mph N/A   Clear
7:36 PM 56.8 °F - 42.8 °F 59% 29.87 in 10.0 mi SE 10.4 mph 16.1 mph N/A   Clear
7:55 PM 55.6 °F - 42.8 °F 62% 29.87 in 10.0 mi SSE 11.5 mph 18.4 mph N/A   Clear
8:15 PM 52.5 °F - 41.9 °F 67% 29.88 in 10.0 mi SSE 12.7 mph 16.1 mph N/A   Clear
8:35 PM 50.5 °F - 41.9 °F 72% 29.88 in 10.0 mi SE 9.2 mph - N/A   Clear
8:55 PM 50.5 °F - 42.4 °F 74% 29.88 in 10.0 mi SE 11.5 mph 18.4 mph N/A   Clear
9:16 PM 50.4 °F - 43.0 °F 76% 29.89 in 10.0 mi SSE 10.4 mph 18.4 mph N/A   Clear
9:35 PM 50.9 °F - 44.1 °F 77% 29.89 in 10.0 mi SSE 12.7 mph 18.4 mph N/A   Clear
9:55 PM 49.8 °F - 44.1 °F 81% 29.89 in 10.0 mi SSE 9.2 mph - N/A   Clear
10:16 PM 47.7 °F - 43.2 °F 84% 29.90 in 10.0 mi SSE 9.2 mph - N/A   Clear
10:35 PM 47.7 °F - 44.8 °F 90% 29.89 in 10.0 mi SSE 9.2 mph - N/A   Scattered Clouds
10:55 PM 47.5 °F - 45.0 °F 91% 29.89 in 10.0 mi SSE 6.9 mph - N/A   Mostly Cloudy
11:16 PM 47.3 °F - 45.9 °F 95% 29.88 in 10.0 mi SSE 6.9 mph - N/A   Mostly Cloudy
11:35 PM 47.3 °F - 46.6 °F 97% 29.88 in 7.0 mi SSE 10.4 mph - N/A   Mostly Cloudy
11:55 PM 46.6 °F - 46.4 °F 99% 29.87 in 5.0 mi SE 8.1 mph - N/A   Mostly Cloudy